Home > Weather > Vaasa > Past weeks

Flag for Finland Weather for the Past 2 Weeks in Vaasa, Finland

Now
34 °F

Light rain. Low clouds.


Feels Like: 27 °F
Forecast: 30 / 34 °F
Wind: 8 mph from Southeast

Location: Vaasa Airport

Current Time: Feb 10, 2016 at 11:15:34 PM

Latest Report: Feb 10, 2016 at 10:20 PM


Visibility: 6 mi

Pressure: 29.12 "Hg

Humidity: 93%

Dew point: 32 °F

Location of VaasaLocation

Historic Weather in Vaasa — Graph

°F

Vaasa Temperature Yesterday

Maximum temperature yesterday: 36 °F (at 6:50 PM)
Minimum temperature yesterday: 36 °F (at 6:50 PM)
Average temperature yesterday: 36 °F

High & Low Weather Summary for the Past Weeks

 TemperatureHumidityPressure
High39 °F (Jan 30, 12:20 AM)100% (Jan 26, 10:20 PM)29.39 "Hg (Jan 26, 10:20 PM)
Low7 °F (Feb 3, 10:50 PM)53% (Feb 1, 3:50 AM)28.68 "Hg (Feb 2, 7:20 AM)
Average30 °F92%29.06 "Hg
* Reported Jan 26 10:20 PM — Feb 10 10:20 PM, Vaasa, Weather by CustomWeather, © 2016

Note: Actual official high and low records may vary slightly from our data, if they occured in-between our weather recording intervals... More about our weather records

Advertising

Vaasa Weather History for the Previous 24 Hours

 ConditionsComfort  
Time TempWeatherWind HumidityBarometerVisibility
10:20 PM
Wed, Feb 10
34 °FLight rain. Low clouds.8 mph93%29.12 "Hg6 mi
9:50 PM34 °FLight rain. Mostly cloudy.8 mph93%29.12 "HgN/A
9:20 PM34 °FLight rain. Mostly cloudy.10 mph93%29.15 "Hg4 mi
8:50 PM34 °FLight rain. Overcast.8 mph93%29.15 "HgN/A
8:20 PM34 °FLight rain. Mostly cloudy.6 mph100%29.15 "HgN/A
7:50 PM34 °FLight rain. Mostly cloudy.7 mph93%29.15 "HgN/A
7:20 PM34 °FLight rain. Low clouds.8 mph100%29.15 "Hg6 mi
6:50 PM36 °FRain. Low clouds.8 mph93%29.18 "Hg6 mi
6:20 PM36 °FRain. Mostly cloudy.7 mph93%29.18 "Hg5 mi
5:50 PM37 °FRain. Low clouds.7 mph93%29.18 "Hg6 mi
5:20 PM37 °FLight rain. Mostly cloudy.7 mph93%29.21 "Hg6 mi
4:50 PM37 °FLight rain. Low clouds.5 mph93%29.21 "HgN/A
4:20 PM37 °FOvercast.6 mph93%29.21 "HgN/A
3:50 PM37 °FMostly cloudy.8 mph93%29.21 "HgN/A
3:20 PM37 °FPartly sunny.7 mph93%29.21 "HgN/A
2:50 PM37 °FPartly sunny.6 mph93%29.21 "HgN/A
2:20 PM37 °FLow clouds.7 mph93%29.21 "HgN/A
1:50 PM37 °FLow clouds.8 mph93%29.21 "HgN/A
1:20 PM37 °FLow clouds.7 mph93%29.21 "HgN/A
12:50 PM37 °FLow clouds.8 mph93%29.21 "HgN/A
12:20 PM37 °FLow clouds.10 mph93%29.24 "HgN/A
11:50 AM37 °FLight rain. Low clouds.9 mph93%29.24 "HgN/A
11:20 AM37 °FLight rain. Low clouds.9 mph93%29.21 "HgN/A
10:50 AM37 °FLight rain. Low clouds.8 mph93%29.21 "HgN/A
10:20 AM37 °FLow clouds.9 mph93%29.21 "HgN/A
9:50 AM37 °FLight rain. Low clouds.8 mph93%29.21 "HgN/A
9:20 AM37 °FMostly cloudy.8 mph93%29.18 "HgN/A
8:50 AM36 °FLight rain. Partly sunny.8 mph100%29.18 "HgN/A
8:20 AM36 °FLight rain. Mostly cloudy.10 mph100%29.15 "HgN/A
7:50 AM36 °FLight rain. Mostly cloudy.9 mph100%29.15 "HgN/A
7:20 AM36 °FPassing clouds.7 mph100%29.12 "HgN/A
6:50 AM37 °FLight rain. Low clouds.7 mph93%29.12 "HgN/A
6:20 AM37 °FLight rain. Low clouds.8 mph93%29.12 "HgN/A
5:50 AM37 °FLight rain. Low clouds.8 mph93%29.09 "HgN/A
5:20 AM37 °FLow clouds.8 mph93%29.09 "HgN/A
4:50 AM37 °FLow clouds.7 mph93%29.09 "HgN/A
4:20 AM37 °FDrizzle. Low clouds.6 mph93%29.06 "Hg5 mi
3:50 AM37 °FLight rain. Fog.8 mph93%29.06 "Hg3 mi
3:20 AM37 °FLight rain. Low clouds.6 mph93%29.03 "Hg4 mi
2:20 AM36 °FLight rain. Low clouds.7 mph100%29.03 "HgN/A
1:50 AM36 °FLight rain. Low clouds.7 mph100%29.00 "Hg4 mi
1:20 AM36 °FLight rain. Low clouds.7 mph100%29.00 "Hg4 mi
12:50 AM36 °FLight rain. Low clouds.9 mph100%29.00 "Hg6 mi
12:20 AM36 °FRain. Low clouds.8 mph100%29.00 "Hg4 mi
11:20 PM
Tue, Feb 9
36 °FLight rain. Low clouds.9 mph93%28.97 "HgN/A
Weather by CustomWeather, © 2016

See weather overviewHow to use our weather pages